DW8675 Weather Reports


Display with metric or nautical units.
time (UTC)temp
F
wind
direction
speed
MPH
gust
MPH
rain 1hr
in
rain 24hr
in
rain mn
in
humidity
%
barometer
mb
20260510160018 58 204 0.0 0.0 0.00 0.18 0.00 83 1008.6
20260510154557 58 139 0.0 6.0 0.00 0.23 0.00 77 1008.1
20260510153033 58 149 2.0 7.0 0.00 0.23 0.00 77 1008.3
20260510151506 59 122 1.0 7.0 0.00 0.23 0.00 79 1008.1
20260510150056 57 200 2.0 6.0 0.00 0.23 0.00 82 1008.0
20260510144525 56 162 1.0 7.0 0.00 0.23 0.00 85 1008.0
20260510143034 55 141 1.0 5.0 0.00 0.23 0.00 83 1008.0
20260510141525 55 158 1.0 3.0 0.00 0.23 0.00 84 1008.0
20260510140055 54 169 1.0 5.0 0.00 0.23 0.00 86 1008.0
20260510134527 53 158 2.0 6.0 0.00 0.23 0.00 88 1008.1
20260510133016 53 208 2.0 6.0 0.00 0.23 0.00 89 1008.3
20260510131553 53 127 1.0 7.0 0.00 0.23 0.00 91 1008.3
20260510130023 51 159 4.0 8.0 0.00 0.23 0.00 91 1008.0
20260510124600 51 158 1.0 8.0 0.00 0.23 0.00 93 1007.9
20260510123015 50 168 1.0 8.0 0.00 0.23 0.00 95 1008.1
20260510121550 50 143 3.0 8.0 0.00 0.23 0.00 95 1008.1
20260510120040 49 147 4.0 9.0 0.00 0.23 0.00 96 1008.1
20260510114534 49 158 1.0 6.0 0.00 0.23 0.00 96 1008.1
20260510113001 49 180 2.0 6.0 0.00 0.23 0.00 96 1007.8
20260510111539 49 134 3.0 6.0 0.00 0.23 0.00 96 1007.7
20260510110109 49 164 3.0 7.0 0.00 0.23 0.00 96 1007.7
20260510104529 49 214 2.0 7.0 0.00 0.23 0.00 96 1007.6
20260510103057 49 193 1.0 6.0 0.00 0.23 0.00 96 1007.2
20260510101519 49 180 1.0 6.0 0.00 0.23 0.00 96 1006.9
20260510100041 49 157 2.0 7.0 0.00 0.23 0.00 95 1006.5
20260510094523 49 174 2.0 6.0 0.00 0.23 0.00 95 1006.2
20260510093041 49 152 3.0 6.0 0.00 0.23 0.00 95 1006.0
20260510091519 49 145 4.0 7.0 0.00 0.23 0.00 95 1006.0
20260510090044 48 193 3.0 6.0 0.00 0.23 0.00 95 1006.1
20260510084523 48 155 1.0 4.0 0.00 0.23 0.00 95 1006.3
20260510083057 49 169 0.0 4.0 0.00 0.23 0.00 95 1006.7
20260510081542 48 166 2.0 9.0 0.00 0.23 0.00 95 1006.6
20260510080020 48 162 0.0 4.0 0.00 0.23 0.00 95 1006.8
20260510074543 49 142 0.0 6.0 0.00 0.23 0.00 95 1006.8
20260510073015 48 125 2.0 6.0 0.00 0.23 0.00 95 1006.8
20260510071558 48 156 2.0 6.0 0.00 0.23 0.00 95 1006.7
20260510070027 48 110 2.0 5.0 0.00 0.23 0.00 95 1006.7
20260510064553 48 143 2.0 7.0 0.00 0.23 0.00 95 1006.8
20260510063035 48 87 1.0 4.0 0.00 0.23 0.00 95 1006.9
20260510061527 48 137 0.0 3.0 0.00 0.23 0.00 95 1006.8
20260510060057 48 171 0.0 7.0 0.00 0.23 0.00 95 1007.0
20260510054524 48 127 3.0 7.0 0.00 0.23 0.00 95 1006.7
20260510053003 48 125 3.0 8.0 0.00 0.23 0.00 95 1006.9
20260510051549 48 112 1.0 6.0 0.00 0.23 0.00 95 1007.2
20260510050021 48 139 3.0 7.0 0.00 0.23 0.00 95 1007.0
20260510044547 48 184 2.0 8.0 0.00 0.23 0.00 95 1007.6
20260510043020 48 141 2.0 9.0 0.00 0.23 0.00 95 1007.5
20260510041637 47 118 3.0 7.0 0.00 0.23 0.00 95 1007.2
20260510040030 47 146 0.0 2.0 0.00 0.23 0.00 95 1007.2
20260510034601 47 145 0.0 3.0 0.00 0.23 0.23 94 1007.4
20260510033021 47 114 1.0 6.0 0.00 0.23 0.23 94 1007.3
20260510031604 47 103 1.0 6.0 0.00 0.23 0.23 94 1007.4
20260510030037 47 133 1.0 4.0 0.00 0.23 0.23 94 1007.4
20260510024513 46 101 2.0 8.0 0.00 0.23 0.23 95 1007.6
20260510023046 46 125 3.0 8.0 0.00 0.23 0.23 94 1007.4
20260510021607 46 139 0.0 3.0 0.00 0.23 0.23 94 1007.7
20260510020031 46 79 2.0 7.0 0.00 0.23 0.23 94 1007.8
20260510014508 46 106 1.0 4.0 0.00 0.23 0.23 94 1007.8
20260510013052 46 83 1.0 3.0 0.00 0.23 0.23 94 1007.9
20260510011514 46 81 0.0 5.0 0.00 0.23 0.23 94 1007.8
20260510010045 46 169 1.0 6.0 0.00 0.23 0.23 94 1007.8
20260510004514 46 118 2.0 7.0 0.00 0.23 0.23 94 1007.7
20260510003048 46 160 1.0 7.0 0.00 0.23 0.23 94 1007.6
20260510001529 46 120 0.0 2.0 0.00 0.23 0.23 94 1007.4
20260510000018 46 114 0.0 3.0 0.00 0.23 0.23 94 1007.2
20260509234559 46 39 1.0 4.0 0.00 0.23 0.23 94 1007.0
20260509233043 46 105 3.0 7.0 0.00 0.23 0.23 94 1006.9
20260509231517 46 145 0.0 3.0 0.00 0.23 0.23 94 1007.0
20260509230007 46 144 0.0 1.0 0.00 0.23 0.23 94 1007.0
20260509224558 46 155 0.0 3.0 0.00 0.23 0.23 94 1007.2
20260509223043 46 156 0.0 3.0 0.00 0.23 0.23 94 1007.1
20260509221504 46 157 0.0 3.0 0.00 0.23 0.23 94 1007.2
20260509220048 46 160 0.0 3.0 0.00 0.23 0.23 94 1007.2
20260509214529 46 166 1.0 4.0 0.00 0.23 0.23 94 1007.4
20260509213015 46 166 0.0 3.0 0.00 0.23 0.23 94 1007.7
20260509211544 46 166 1.0 5.0 0.00 0.23 0.23 94 1007.7
20260509210015 46 206 1.0 3.0 0.00 0.23 0.23 94 1007.8
20260509204543 46 203 2.0 6.0 0.01 0.23 0.23 94 1007.8
20260509203008 46 160 1.0 4.0 0.01 0.23 0.23 93 1007.7
20260509201539 46 171 0.0 3.0 0.03 0.23 0.23 94 1007.9
20260509200018 46 172 1.0 2.0 0.05 0.23 0.23 94 1007.9
20260509194504 46 172 0.0 3.0 0.05 0.22 0.22 94 1008.0
20260509193024 45 164 1.0 4.0 0.06 0.22 0.22 94 1008.1
20260509191505 45 208 1.0 3.0 0.04 0.20 0.20 93 1008.3
20260509190035 45 208 0.0 3.0 0.04 0.18 0.18 93 1008.5
20260509184601 46 120 0.0 2.0 0.04 0.17 0.17 93 1008.5
20260509183037 46 112 0.0 3.0 0.04 0.16 0.16 93 1008.5
20260509181526 45 162 1.0 5.0 0.04 0.15 0.15 92 1008.6
20260509180059 45 178 1.0 4.0 0.04 0.14 0.14 93 1008.7
20260509174531 45 149 0.0 3.0 0.04 0.13 0.13 92 1008.8
20260509173119 44 148 2.0 6.0 0.04 0.12 0.12 91 1009.0
20260509171541 44 167 1.0 7.0 0.04 0.11 0.11 91 1009.0
20260509170015 44 168 1.0 6.0 0.04 0.10 0.10 91 1009.2
20260509164532 44 214 0.0 4.0 0.05 0.09 0.09 92 1009.4
20260509163024 43 189 0.0 2.0 0.07 0.08 0.08 91 1009.6
20260509161512 43 180 1.0 3.0 0.05 0.06 0.06 91 1009.8